Location: Tierra del Sol
(32.6128°N, 116.3319°W)
Time: 19:24:57
(UTC-08:00)

Envisat - Pass Details

Date: 07 October 2017
Orbit: 764 x 766 km, 98.2° (Epoch: 17 December)

Event Time Altitude Azimuth Distance (km) Brightness Sun altitude
Exits shadow 19:58:39 24° 38° (NE) 1,535 4.3 -21.2°
Drops below altitude 10° 20:01:21 10° 11° (NNE) 2,307 5.4 -21.8°
Sets 20:03:54 0° 1° (N) 3,237 6.3 -22.3°
